1998-067PP (43639 NORAD) Tracking and Keplerian Element Data

This shows tracking and keplerian element data for the satellite.

Feedback or suggestion? Click here.




ElementValue
Catalog43639
Name1998-067PP
Epoch Orbit590
Epoch Day317.57394001
Epoch Year2018
RAAN354.0162
Inclination51.6401
Eccentricity0.0006247
Argument of Perigee12.1505
Mean Anonmoly347.9635
Mean Motion15.55148473
Decay Rate8.304E-05
L11 43639U 98067PP 18317.57394001 .00008304 00000-0 12774-3 0 9993
L22 43639 51.6401 354.0162 0006247 12.1505 347.9635 15.55148473 5902

Live tracking and technical data element details for 1998-067PP (NORAD 43639). 1998-067PP can be tracked NOW for your location showing map with azimuth and elevation plus other details from your city location.

Track the satellite on the map from your city or location and see movement details for azimuth, elevation, latitude, longitude, range, height, and movement on the map or in text.







IsCatalogInMostPopularTable: catalog: 43639, numindb: 20
Update: records affected: 1



GetName: 43639 1998-067PP

Hit Count: updated at: Thu, 15 Nov 2018 04:18:35 GMT